Weather History for Cheboygan, MI

Change the Weather History Date:

Wednesday, August 21, 2013

  Actual Average (KPLN) Record (KPLN)
Temperature  
Mean Temperature 80 °F -  
Max Temperature 89 °F 76 °F 96 °F (1955)
Min Temperature 70 °F 50 °F 30 °F (2004)
Cooling Degree Days 14    
Growing Degree Days 30 (Base 50)    
Moisture  
Dew Point 63 °F    
Average Humidity 58    
Maximum Humidity 73    
Minimum Humidity 43    
Precipitation  
Precipitation 0.00 in - - ()
Sea Level Pressure  
Sea Level Pressure 29.94 in    
Wind  
Wind Speed 9 mph (SW)    
Max Wind Speed 18 mph    
Max Gust Speed 25 mph    
Visibility 10 miles    
Events Rain    
Averages and records for this station are not official NWS values.
T = Trace of Precipitation, MM = Missing Value Source: NWS Daily Summary

Daily Weather History Graph

Daily Weather History Graph

Search for Another Location

Airport:

Trip Planner

Search our weather history database for the weather conditions in past years. The results will help you decide how hot, cold, wet, or windy it might be!

Date:

Astronomy

Aug. 21, 2013 Rise Set
Actual Time 6:46 AM EDT 8:35 PM EDT
Civil Twilight 6:14 AM EDT 9:06 PM EDT
Nautical Twilight 5:35 AM EDT 9:45 PM EDT
Astronomical Twilight 4:53 AM EDT 10:27 PM EDT
Moon 8:36 PM EDT (8/21) 7:30 AM EDT (8/21)
Length of Visible Light 14h 52m
Length of Day
13h 49m
Full, 100% of the Moon is Illuminated
Aug 21
Full
Aug 28
Last Quarter
Sep 5
New
Sep 12
First Quarter
Sep 19
Full

Hourly Weather History & Observations

Time (EDT) Temp. Heat Index Dew Point Humidity Pressure Visibility Wind Dir Wind Speed Gust Speed Precip Events Conditions
12:16 AM 72.1 °F - 61.0 °F 68% 30.01 in 10.0 mi SW 5.8 mph - N/A   Clear
12:36 AM 72.7 °F - 60.8 °F 66% 30.01 in 10.0 mi SSW 5.8 mph - N/A   Clear
12:56 AM 72.5 °F - 60.6 °F 66% 30.01 in 10.0 mi SSW 5.8 mph - N/A   Clear
1:15 AM 72.5 °F - 60.4 °F 66% 30.01 in 10.0 mi SSW 5.8 mph - N/A   Clear
1:36 AM 72.1 °F - 60.1 °F 66% 30.01 in 10.0 mi SSW 6.9 mph - N/A   Clear
1:55 AM 71.2 °F - 60.1 °F 68% 30.01 in 10.0 mi SW 4.6 mph - N/A   Clear
2:16 AM 71.4 °F - 60.1 °F 67% 30.00 in 10.0 mi SSW 5.8 mph - N/A   Clear
2:36 AM 71.6 °F - 60.1 °F 67% 30.00 in 10.0 mi SSW 5.8 mph - N/A   Clear
2:56 AM 71.2 °F - 60.1 °F 68% 29.99 in 10.0 mi SSW 6.9 mph - N/A   Clear
3:15 AM 71.2 °F - 60.1 °F 68% 29.99 in 10.0 mi SSW 8.1 mph - N/A   Clear
3:36 AM 71.6 °F - 60.3 °F 67% 29.99 in 10.0 mi SSW 5.8 mph - N/A   Clear
3:55 AM 71.2 °F - 60.3 °F 68% 29.99 in 10.0 mi SSW 6.9 mph - N/A   Clear
4:16 AM 71.1 °F - 60.4 °F 69% 29.98 in 10.0 mi SSW 8.1 mph - N/A   Clear
4:36 AM 71.2 °F - 60.4 °F 69% 29.99 in 10.0 mi SSW 8.1 mph - N/A   Clear
4:55 AM 71.1 °F - 60.4 °F 69% 29.98 in 10.0 mi SSW 8.1 mph - N/A   Clear
5:16 AM 71.1 °F - 60.4 °F 69% 29.99 in 10.0 mi SSW 8.1 mph - N/A   Clear
5:36 AM 71.1 °F - 60.6 °F 69% 29.99 in 10.0 mi SSW 8.1 mph - N/A   Clear
5:56 AM 71.1 °F - 60.8 °F 70% 29.98 in 10.0 mi SSW 8.1 mph - N/A   Clear
6:16 AM 70.9 °F - 60.8 °F 70% 29.99 in 10.0 mi South 5.8 mph - N/A   Clear
6:35 AM 70.3 °F - 61.0 °F 72% 29.98 in 10.0 mi South 5.8 mph - N/A   Clear
6:56 AM 70.2 °F - 61.2 °F 73% 29.98 in 10.0 mi SSW 6.9 mph - N/A   Scattered Clouds
7:15 AM 70.0 °F - 61.2 °F 73% 29.98 in 10.0 mi South 6.9 mph - N/A   Clear
7:35 AM 71.2 °F - 61.7 °F 72% 29.98 in 10.0 mi SSW 8.1 mph - N/A   Clear
7:56 AM 72.5 °F - 61.7 °F 69% 29.98 in 10.0 mi South 5.8 mph - N/A   Clear
8:15 AM 72.7 °F - 62.2 °F 70% 29.98 in 10.0 mi South 6.9 mph - N/A   Clear
8:36 AM 74.1 °F - 62.6 °F 67% 29.98 in 10.0 mi SSW 8.1 mph - N/A   Clear
8:56 AM 75.6 °F - 63.0 °F 65% 29.99 in 10.0 mi SSW 8.1 mph - N/A   Clear
9:15 AM 77.0 °F - 63.0 °F 62% 29.99 in 10.0 mi South 8.1 mph - N/A   Clear
9:35 AM 78.3 °F - 63.3 °F 60% 29.99 in 10.0 mi SSW 9.2 mph - N/A   Scattered Clouds
9:56 AM 78.3 °F - 63.3 °F 60% 29.98 in 10.0 mi SSW 6.9 mph 16.1 mph N/A   Mostly Cloudy
10:15 AM 81.5 °F 82.9 °F 63.7 °F 55% 29.98 in 10.0 mi SW 10.4 mph 20.7 mph N/A   Scattered Clouds
10:36 AM 81.3 °F 82.7 °F 63.5 °F 55% 29.98 in 10.0 mi SW 15.0 mph 19.6 mph N/A   Scattered Clouds
10:56 AM 82.8 °F 84.0 °F 63.5 °F 52% 29.97 in 10.0 mi WSW 17.3 mph 23.0 mph N/A   Scattered Clouds
11:15 AM 82.9 °F 84.2 °F 63.5 °F 52% 29.97 in 10.0 mi SW 16.1 mph 24.2 mph N/A   Clear
11:36 AM 83.8 °F 84.9 °F 63.5 °F 50% 29.97 in 10.0 mi WSW 15.0 mph 19.6 mph N/A   Clear
11:56 AM 84.7 °F 85.6 °F 63.3 °F 48% 29.96 in 10.0 mi SW 15.0 mph 25.3 mph N/A   Clear
12:15 PM 85.8 °F 86.8 °F 63.5 °F 47% 29.97 in 10.0 mi SW 16.1 mph 23.0 mph N/A   Clear
12:36 PM 86.0 °F 87.1 °F 63.5 °F 47% 29.96 in 10.0 mi WSW 11.5 mph 21.9 mph N/A   Clear
12:56 PM 86.4 °F 87.6 °F 63.9 °F 47% 29.94 in 10.0 mi SW 12.7 mph 18.4 mph N/A   Clear
1:15 PM 86.9 °F 88.1 °F 63.7 °F 46% 29.94 in 10.0 mi SW 13.8 mph 21.9 mph N/A   Clear
1:35 PM 87.3 °F 88.3 °F 63.3 °F 45% 29.93 in 10.0 mi SSW 17.3 mph 25.3 mph N/A   Clear
1:55 PM 87.4 °F 88.5 °F 63.5 °F 45% 29.93 in 10.0 mi South 16.1 mph - N/A   Clear
2:16 PM 88.3 °F 89.5 °F 63.7 °F 44% 29.93 in 10.0 mi SW 18.4 mph 24.2 mph N/A   Clear
2:35 PM 88.2 °F 89.3 °F 63.7 °F 44% 29.91 in 10.0 mi SSW 15.0 mph 25.3 mph N/A   Clear
2:56 PM 89.1 °F 90.3 °F 63.7 °F 43% 29.90 in 10.0 mi SW 17.3 mph 25.3 mph N/A   Clear
3:15 PM 89.6 °F 91.1 °F 64.2 °F 43% 29.91 in 10.0 mi SSW 15.0 mph 20.7 mph N/A   Clear
3:35 PM 89.1 °F 91.0 °F 64.9 °F 45% 29.91 in 10.0 mi SSW 10.4 mph 18.4 mph N/A   Scattered Clouds
3:55 PM 87.8 °F 89.4 °F 64.9 °F 46% 29.91 in 10.0 mi WSW 12.7 mph 21.9 mph N/A   Clear
4:15 PM 88.5 °F 90.1 °F 64.6 °F 45% 29.90 in 10.0 mi WSW 12.7 mph 20.7 mph N/A   Clear
4:36 PM 87.4 °F 88.8 °F 64.0 °F 46% 29.90 in 10.0 mi SW 15.0 mph 23.0 mph N/A   Clear
4:55 PM 88.2 °F 89.6 °F 64.4 °F 45% 29.89 in 10.0 mi SW 13.8 mph 19.6 mph N/A   Clear
5:16 PM 89.2 °F 90.9 °F 64.4 °F 44% 29.88 in 10.0 mi WSW 10.4 mph 23.0 mph N/A   Scattered Clouds
5:36 PM 89.1 °F 90.3 °F 63.9 °F 43% 29.88 in 10.0 mi SW 15.0 mph 24.2 mph N/A   Clear
5:55 PM 88.7 °F 89.8 °F 63.7 °F 43% 29.88 in 10.0 mi SW 12.7 mph 23.0 mph N/A   Clear
6:16 PM 87.4 °F 88.2 °F 63.3 °F 44% 29.88 in 10.0 mi WSW 16.1 mph 24.2 mph N/A   Clear
6:36 PM 86.2 °F 87.3 °F 63.7 °F 47% 29.88 in 10.0 mi WSW 13.8 mph 19.6 mph N/A   Scattered Clouds
6:55 PM 85.6 °F 87.1 °F 64.6 °F 49% 29.89 in 10.0 mi West 6.9 mph - N/A   Scattered Clouds
7:16 PM 84.6 °F 86.1 °F 64.6 °F 51% 29.88 in 10.0 mi West 6.9 mph - N/A   Mostly Cloudy
7:36 PM 83.3 °F 84.8 °F 64.4 °F 53% 29.87 in 10.0 mi WSW 6.9 mph - N/A   Mostly Cloudy
7:55 PM 82.4 °F 83.9 °F 64.4 °F 54% 29.88 in 10.0 mi WSW 4.6 mph - N/A   Scattered Clouds
8:16 PM 81.5 °F 83.1 °F 64.4 °F 56% 29.89 in 10.0 mi WSW 6.9 mph - N/A   Scattered Clouds
8:35 PM 81.5 °F 83.1 °F 64.2 °F 56% 29.90 in 10.0 mi WSW 8.1 mph - N/A   Mostly Cloudy
8:56 PM 80.8 °F 82.4 °F 64.4 °F 57% 29.89 in 10.0 mi SW 6.9 mph - N/A Rain Light Rain
9:15 PM 80.8 °F 82.5 °F 64.6 °F 58% 29.87 in 10.0 mi SW 12.7 mph 16.1 mph N/A   Clear
9:35 PM 80.8 °F 82.5 °F 64.8 °F 58% 29.86 in 10.0 mi SSW 11.5 mph 19.6 mph N/A   Clear
9:56 PM 79.9 °F - 64.9 °F 60% 29.86 in 10.0 mi WSW 13.8 mph 17.3 mph N/A   Clear
10:16 PM 79.0 °F - 64.8 °F 62% 29.89 in 10.0 mi WSW 13.8 mph 23.0 mph N/A   Clear
10:35 PM 78.8 °F - 64.6 °F 62% 29.87 in 10.0 mi SSW 12.7 mph 18.4 mph N/A   Clear
10:56 PM 75.7 °F - 65.5 °F 70% 29.90 in 10.0 mi West 6.9 mph 21.9 mph N/A Rain Light Rain
11:16 PM 76.3 °F - 65.1 °F 68% 29.89 in 10.0 mi NW 6.9 mph 17.3 mph N/A Rain Light Rain
11:36 PM 75.6 °F - 65.1 °F 70% 29.90 in 10.0 mi West 11.5 mph 21.9 mph N/A   Light Drizzle
11:55 PM 76.1 °F - 63.1 °F 64% 29.91 in 10.0 mi West 16.1 mph 19.6 mph N/A   Scattered Clouds